| time (UTC) | temp F | wind direction | speed knots | gust knots | rain 1hr in | rain 24hr in | rain mn in | humidity % | barometer mb |
| 20260508065017 | 48 | 46 | 2.6 | 5.2 | 0.00 | 0.46 | 0.00 | 90 | 1011.6 |
| 20260508064017 | 48 | 47 | 3.5 | 7.0 | 0.00 | 0.46 | 0.00 | 90 | 1011.9 |
| 20260508063017 | 48 | 50 | 3.5 | 7.8 | 0.00 | 0.46 | 0.00 | 90 | 1011.8 |
| 20260508062017 | 48 | 44 | 3.5 | 7.0 | 0.00 | 0.46 | 0.00 | 90 | 1011.8 |
| 20260508061016 | 48 | 53 | 3.5 | 7.0 | 0.00 | 0.46 | 0.00 | 90 | 1011.6 |
| 20260508060017 | 48 | 50 | 3.5 | 6.1 | 0.00 | 0.46 | 0.00 | 90 | 1011.5 |
| 20260508055016 | 48 | 52 | 2.6 | 7.0 | 0.00 | 0.46 | 0.00 | 89 | 1011.6 |
| 20260508054017 | 48 | 50 | 3.5 | 6.1 | 0.00 | 0.46 | 0.00 | 89 | 1011.6 |
| 20260508053017 | 48 | 49 | 2.6 | 5.2 | 0.00 | 0.46 | 0.00 | 89 | 1011.7 |
| 20260508052017 | 48 | 50 | 2.6 | 5.2 | 0.00 | 0.46 | 0.00 | 89 | 1011.6 |
| 20260508051017 | 48 | 94 | 0.9 | 5.2 | 0.00 | 0.46 | 0.00 | 89 | 1011.3 |
| 20260508050017 | 48 | 56 | 1.7 | 4.3 | 0.00 | 0.46 | 0.00 | 89 | 1011.2 |
| 20260508045017 | 47 | 80 | 1.7 | 4.3 | 0.00 | 0.46 | 0.00 | 89 | 1011.1 |
| 20260508044017 | 47 | 67 | 1.7 | 4.3 | 0.00 | 0.46 | 0.00 | 89 | 1010.8 |
| 20260508043020 | 47 | 60 | 1.7 | 4.3 | 0.00 | 0.46 | 0.00 | 89 | 1010.8 |
| 20260508042017 | 48 | 80 | 2.6 | 3.5 | 0.00 | 0.46 | 0.00 | 89 | 1010.7 |
| 20260508041017 | 48 | 73 | 1.7 | 3.5 | 0.00 | 0.46 | 0.00 | 88 | 1010.6 |
| 20260508040017 | 48 | 69 | 2.6 | 5.2 | 0.00 | 0.46 | 0.00 | 88 | 1010.5 |
| 20260508035017 | 48 | 77 | 1.7 | 3.5 | 0.00 | 0.46 | 0.00 | 88 | 1010.5 |
| 20260508034017 | 48 | 63 | 1.7 | 4.3 | 0.00 | 0.46 | 0.00 | 88 | 1010.6 |
| 20260508033017 | 48 | 46 | 1.7 | 4.3 | 0.00 | 0.46 | 0.00 | 89 | 1010.6 |
| 20260508032017 | 48 | 49 | 2.6 | 4.3 | 0.00 | 0.46 | 0.00 | 89 | 1010.6 |
| 20260508031017 | 48 | 63 | 1.7 | 5.2 | 0.00 | 0.46 | 0.00 | 89 | 1010.8 |
| 20260508030017 | 48 | 54 | 1.7 | 5.2 | 0.00 | 0.46 | 0.00 | 89 | 1010.6 |
| 20260508025017 | 48 | 81 | 1.7 | 4.3 | 0.00 | 0.46 | 0.00 | 90 | 1010.5 |
| 20260508024017 | 48 | 94 | 1.7 | 6.1 | 0.00 | 0.46 | 0.00 | 90 | 1010.5 |
| 20260508023017 | 48 | 60 | 2.6 | 6.1 | 0.00 | 0.46 | 0.00 | 90 | 1010.5 |
| 20260508022017 | 48 | 46 | 4.3 | 7.8 | 0.00 | 0.46 | 0.00 | 89 | 1010.6 |
| 20260508021017 | 48 | 58 | 3.5 | 6.1 | 0.00 | 0.46 | 0.00 | 89 | 1010.4 |
| 20260508020017 | 48 | 57 | 3.5 | 7.8 | 0.00 | 0.46 | 0.00 | 89 | 1010.6 |
| 20260508015017 | 49 | 60 | 3.5 | 6.1 | 0.00 | 0.46 | 0.00 | 89 | 1010.7 |
| 20260508014017 | 49 | 62 | 2.6 | 6.1 | 0.00 | 0.46 | 0.00 | 89 | 1010.6 |
| 20260508013017 | 49 | 50 | 2.6 | 6.1 | 0.00 | 0.46 | 0.00 | 89 | 1010.8 |
| 20260508012015 | 49 | 48 | 4.3 | 7.0 | 0.00 | 0.46 | 0.00 | 89 | 1010.9 |
| 20260508011017 | 49 | 69 | 1.7 | 6.1 | 0.00 | 0.46 | 0.00 | 89 | 1011.6 |
| 20260508010017 | 49 | 50 | 3.5 | 7.0 | 0.00 | 0.46 | 0.00 | 89 | 1011.7 |
| 20260508005017 | 49 | 50 | 4.3 | 7.0 | 0.00 | 0.46 | 0.00 | 89 | 1011.9 |
| 20260508004037 | 50 | 47 | 2.6 | 5.2 | 0.00 | 0.46 | 0.00 | 88 | 1012.1 |
| 20260508003037 | 50 | 40 | 1.7 | 4.3 | 0.00 | 0.46 | 0.00 | 87 | 1012.2 |
| 20260508002037 | 51 | 77 | 1.7 | 3.5 | 0.00 | 0.46 | 0.00 | 86 | 1012.3 |
| 20260508001018 | 51 | 77 | 1.7 | 2.6 | 0.00 | 0.46 | 0.00 | 86 | 1012.7 |
| 20260508000017 | 51 | 78 | 1.7 | 3.5 | 0.00 | 0.46 | 0.00 | 86 | 1012.8 |
| 20260507235017 | 51 | 79 | 0.9 | 3.5 | 0.00 | 0.46 | 0.46 | 85 | 1012.7 |
| 20260507234017 | 51 | 79 | 0.9 | 2.6 | 0.00 | 0.46 | 0.46 | 86 | 1012.8 |
| 20260507233017 | 51 | 79 | 0.9 | 1.7 | 0.00 | 0.46 | 0.46 | 87 | 1012.9 |
| 20260507232016 | 51 | 79 | 0.9 | 2.6 | 0.00 | 0.46 | 0.46 | 87 | 1013.1 |
| 20260507231017 | 51 | 79 | 1.7 | 3.5 | 0.00 | 0.46 | 0.46 | 87 | 1013.1 |
| 20260507230016 | 51 | 79 | 0.9 | 1.7 | 0.00 | 0.46 | 0.46 | 87 | 1013.1 |
| 20260507225016 | 51 | 81 | 1.7 | 3.5 | 0.00 | 0.46 | 0.46 | 87 | 1013.2 |
| 20260507224016 | 51 | 98 | 0.9 | 1.7 | 0.00 | 0.46 | 0.46 | 87 | 1013.1 |
| 20260507223016 | 51 | 98 | 0.9 | 1.7 | 0.00 | 0.46 | 0.46 | 87 | 1013.1 |
| 20260507222017 | 51 | 98 | 0.9 | 2.6 | 0.00 | 0.46 | 0.46 | 88 | 1013.1 |
| 20260507221016 | 51 | 105 | 0.0 | 1.7 | 0.00 | 0.46 | 0.46 | 87 | 1013.0 |
| 20260507220016 | 51 | 0.0 | 0.0 | 0.00 | 0.46 | 0.46 | 87 | 1013.1 | |
| 20260507215016 | 51 | 0.0 | 0.9 | 0.00 | 0.46 | 0.46 | 87 | 1013.0 | |
| 20260507214016 | 51 | 0.0 | 0.0 | 0.00 | 0.46 | 0.46 | 88 | 1012.9 | |
| 20260507213016 | 51 | 0.0 | 0.0 | 0.00 | 0.46 | 0.46 | 87 | 1012.7 | |
| 20260507212017 | 51 | 0.0 | 0.0 | 0.00 | 0.46 | 0.46 | 86 | 1012.7 | |
| 20260507211017 | 52 | 0.0 | 0.0 | 0.00 | 0.46 | 0.46 | 84 | 1012.4 | |
| 20260507210016 | 53 | 0.0 | 0.0 | 0.00 | 0.46 | 0.46 | 82 | 1012.3 | |
| 20260507205017 | 53 | 0.0 | 0.9 | 0.00 | 0.46 | 0.46 | 79 | 1012.1 | |
| 20260507204017 | 54 | 105 | 0.0 | 1.7 | 0.00 | 0.46 | 0.46 | 79 | 1011.8 |
| 20260507203016 | 54 | 105 | 0.9 | 2.6 | 0.00 | 0.46 | 0.46 | 78 | 1011.7 |
| 20260507202017 | 54 | 106 | 0.0 | 1.7 | 0.00 | 0.46 | 0.46 | 78 | 1011.6 |
| 20260507201017 | 55 | 93 | 1.7 | 5.2 | 0.00 | 0.46 | 0.46 | 77 | 1011.4 |
| 20260507200016 | 55 | 108 | 1.7 | 4.3 | 0.00 | 0.46 | 0.46 | 77 | 1011.3 |
| 20260507195016 | 56 | 79 | 1.7 | 3.5 | 0.00 | 0.46 | 0.46 | 76 | 1011.2 |
| 20260507194016 | 56 | 101 | 0.9 | 1.7 | 0.00 | 0.46 | 0.46 | 75 | 1011.0 |
| 20260507193017 | 56 | 105 | 0.0 | 3.5 | 0.00 | 0.46 | 0.46 | 75 | 1010.9 |
| 20260507192017 | 57 | 115 | 0.0 | 3.5 | 0.00 | 0.46 | 0.46 | 74 | 1010.8 |
| 20260507191017 | 57 | 50 | 0.9 | 2.6 | 0.00 | 0.46 | 0.46 | 74 | 1010.8 |
| 20260507190017 | 58 | 49 | 1.7 | 2.6 | 0.00 | 0.46 | 0.46 | 73 | 1010.5 |
| 20260507185017 | 58 | 49 | 1.7 | 3.5 | 0.00 | 0.46 | 0.46 | 72 | 1010.2 |
| 20260507184016 | 59 | 49 | 1.7 | 4.3 | 0.00 | 0.46 | 0.46 | 71 | 1010.2 |
| 20260507183037 | 59 | 52 | 3.5 | 5.2 | 0.00 | 0.46 | 0.46 | 70 | 1010.0 |
| 20260507182017 | 60 | 56 | 1.7 | 4.3 | 0.00 | 0.46 | 0.46 | 66 | 1010.1 |
| 20260507181037 | 60 | 62 | 1.7 | 4.3 | 0.00 | 0.46 | 0.46 | 68 | 1010.1 |
| 20260507180017 | 59 | 57 | 1.7 | 4.3 | 0.00 | 0.46 | 0.46 | 70 | 1009.9 |
| 20260507175017 | 59 | 45 | 1.7 | 4.3 | 0.00 | 0.46 | 0.46 | 71 | 1009.8 |
| 20260507174017 | 59 | 66 | 1.7 | 4.3 | 0.00 | 0.46 | 0.46 | 70 | 1009.9 |
| 20260507173017 | 59 | 66 | 2.6 | 5.2 | 0.00 | 0.46 | 0.46 | 70 | 1009.8 |
| 20260507172016 | 58 | 62 | 2.6 | 5.2 | 0.00 | 0.46 | 0.46 | 73 | 1009.8 |
| 20260507171037 | 58 | 59 | 2.6 | 6.1 | 0.00 | 0.46 | 0.46 | 76 | 1009.8 |
| 20260507170017 | 56 | 64 | 3.5 | 7.0 | 0.01 | 0.46 | 0.46 | 79 | 1009.7 |
| 20260507165017 | 55 | 58 | 4.3 | 7.8 | 0.02 | 0.46 | 0.46 | 81 | 1009.5 |
| 20260507164016 | 54 | 77 | 4.3 | 7.8 | 0.02 | 0.46 | 0.46 | 83 | 1009.5 |
| 20260507163016 | 52 | 69 | 2.6 | 5.2 | 0.03 | 0.46 | 0.46 | 86 | 1009.4 |
| 20260507162017 | 51 | 63 | 3.5 | 7.0 | 0.05 | 0.46 | 0.46 | 87 | 1009.2 |
| 20260507161017 | 52 | 65 | 4.3 | 7.0 | 0.05 | 0.46 | 0.46 | 86 | 1009.3 |
| 20260507160018 | 53 | 99 | 2.6 | 11.3 | 0.04 | 0.45 | 0.45 | 88 | 1009.8 |
| 20260507155017 | 53 | 113 | 6.1 | 9.6 | 0.03 | 0.44 | 0.44 | 89 | 1010.3 |
| 20260507154017 | 53 | 273 | 1.7 | 5.2 | 0.02 | 0.43 | 0.43 | 93 | 1010.5 |
| 20260507153017 | 53 | 272 | 2.6 | 6.1 | 0.02 | 0.43 | 0.43 | 93 | 1010.5 |
| 20260507152017 | 53 | 336 | 3.5 | 7.8 | 0.00 | 0.41 | 0.41 | 94 | 1010.2 |
| 20260507151017 | 53 | 357 | 4.3 | 8.7 | 0.00 | 0.41 | 0.41 | 93 | 1010.0 |
| 20260507150017 | 53 | 10 | 4.3 | 9.6 | 0.00 | 0.41 | 0.41 | 93 | 1010.2 |
| 20260507145037 | 53 | 23 | 5.2 | 11.3 | 0.00 | 0.41 | 0.41 | 92 | 1010.2 |
| 20260507144017 | 54 | 39 | 5.2 | 10.4 | 0.00 | 0.41 | 0.41 | 93 | 1010.0 |
| 20260507143017 | 55 | 35 | 6.1 | 12.2 | 0.01 | 0.41 | 0.41 | 94 | 1010.1 |
| 20260507142037 | 55 | 34 | 6.1 | 11.3 | 0.06 | 0.41 | 0.41 | 94 | 1009.9 |
| 20260507141017 | 54 | 45 | 4.3 | 8.7 | 0.08 | 0.41 | 0.41 | 94 | 1009.8 |
| 20260507140017 | 54 | 49 | 4.3 | 8.7 | 0.09 | 0.41 | 0.41 | 95 | 1009.8 |
| 20260507135017 | 53 | 62 | 4.3 | 11.3 | 0.13 | 0.41 | 0.41 | 95 | 1009.7 |
| 20260507134017 | 51 | 49 | 7.8 | 11.3 | 0.41 | 0.41 | 0.41 | 95 | 1009.7 |
| 20260507133017 | 49 | 30 | 3.5 | 13.0 | 0.40 | 0.40 | 0.40 | 93 | 1010.0 |
| 20260507132017 | 48 | 23 | 8.7 | 15.6 | 0.35 | 0.35 | 0.35 | 93 | 1009.7 |
| 20260507131017 | 49 | 21 | 5.2 | 9.6 | 0.33 | 0.33 | 0.33 | 92 | 1010.2 |
| 20260507130017 | 50 | 37 | 5.2 | 10.4 | 0.32 | 0.32 | 0.32 | 90 | 1009.9 |
| 20260507125037 | 55 | 358 | 5.2 | 14.8 | 0.28 | 0.28 | 0.28 | 77 | 1010.1 |
| 20260507124017 | 58 | 117 | 2.6 | 11.3 | 0.00 | 0.00 | 0.00 | 67 | 1009.6 |
| 20260507123037 | 58 | 102 | 6.1 | 12.2 | 0.00 | 0.00 | 0.00 | 67 | 1009.6 |
| 20260507122017 | 59 | 98 | 5.2 | 12.2 | 0.00 | 0.00 | 0.00 | 65 | 1010.0 |
| 20260507121017 | 59 | 64 | 4.3 | 8.7 | 0.00 | 0.00 | 0.00 | 65 | 1010.0 |
| 20260507120017 | 60 | 73 | 2.6 | 6.1 | 0.00 | 0.00 | 0.00 | 68 | 1009.9 |
| 20260507115017 | 60 | 117 | 1.7 | 7.8 | 0.00 | 0.00 | 0.00 | 68 | 1009.9 |
| 20260507114017 | 62 | 101 | 2.6 | 5.2 | 0.00 | 0.00 | 0.00 | 68 | 1010.3 |
| 20260507113037 | 63 | 46 | 1.7 | 3.5 | 0.00 | 0.00 | 0.00 | 64 | 1010.3 |
| 20260507112017 | 63 | 95 | 0.9 | 4.3 | 0.00 | 0.00 | 0.00 | 61 | 1010.4 |
| 20260507111017 | 64 | 32 | 0.9 | 4.3 | 0.00 | 0.00 | 0.00 | 61 | 1010.7 |
| 20260507110037 | 63 | 6 | 1.7 | 4.3 | 0.00 | 0.00 | 0.00 | 62 | 1010.8 |
| 20260507105017 | 63 | 41 | 2.6 | 5.2 | 0.00 | 0.00 | 0.00 | 62 | 1010.9 |
| 20260507104017 | 63 | 71 | 1.7 | 3.5 | 0.00 | 0.00 | 0.00 | 63 | 1011.0 |
| 20260507103017 | 62 | 112 | 0.9 | 3.5 | 0.00 | 0.00 | 0.00 | 63 | 1011.2 |
| 20260507102017 | 62 | 59 | 0.9 | 2.6 | 0.00 | 0.00 | 0.00 | 65 | 1011.3 |
| 20260507101015 | 61 | 55 | 1.7 | 5.2 | 0.00 | 0.00 | 0.00 | 66 | 1011.4 |
| 20260507100017 | 60 | 39 | 1.7 | 4.3 | 0.00 | 0.00 | 0.00 | 68 | 1011.3 |
| 20260507095015 | 60 | 54 | 2.6 | 5.2 | 0.00 | 0.00 | 0.00 | 68 | 1011.4 |
| 20260507094017 | 59 | 49 | 2.6 | 4.3 | 0.00 | 0.00 | 0.00 | 69 | 1011.4 |
| 20260507093015 | 59 | 45 | 1.7 | 5.2 | 0.00 | 0.00 | 0.00 | 69 | 1011.5 |
| 20260507092017 | 59 | 64 | 1.7 | 4.3 | 0.00 | 0.00 | 0.00 | 69 | 1011.5 |
| 20260507091017 | 58 | 17 | 1.7 | 5.2 | 0.00 | 0.00 | 0.00 | 71 | 1011.5 |
| 20260507090017 | 58 | 34 | 1.7 | 4.3 | 0.00 | 0.00 | 0.00 | 71 | 1011.6 |
| 20260507085017 | 57 | 49 | 1.7 | 6.1 | 0.00 | 0.00 | 0.00 | 73 | 1011.4 |
| 20260507084037 | 57 | 31 | 1.7 | 5.2 | 0.00 | 0.00 | 0.00 | 74 | 1011.4 |
| 20260507083017 | 56 | 35 | 1.7 | 5.2 | 0.00 | 0.00 | 0.00 | 75 | 1011.4 |
| 20260507082017 | 55 | 358 | 1.7 | 4.3 | 0.00 | 0.00 | 0.00 | 77 | 1011.5 |
| 20260507081017 | 54 | 343 | 0.9 | 3.5 | 0.00 | 0.00 | 0.00 | 80 | 1011.6 |
| 20260507080015 | 54 | 274 | 0.9 | 3.5 | 0.00 | 0.00 | 0.00 | 80 | 1011.5 |
| 20260507075016 | 54 | 67 | 2.6 | 8.7 | 0.00 | 0.00 | 0.00 | 80 | 1011.1 |
| 20260507074035 | 54 | 74 | 3.5 | 7.8 | 0.00 | 0.00 | 0.00 | 77 | 1011.3 |
| 20260507073015 | 53 | 52 | 3.5 | 6.1 | 0.00 | 0.00 | 0.00 | 77 | 1011.3 |
| 20260507072015 | 53 | 46 | 3.5 | 6.1 | 0.00 | 0.00 | 0.00 | 77 | 1011.3 |
| 20260507071035 | 53 | 41 | 2.6 | 5.2 | 0.00 | 0.00 | 0.00 | 77 | 1011.8 |
| 20260507070015 | 53 | 65 | 1.7 | 5.2 | 0.00 | 0.00 | 0.00 | 78 | 1011.8 |